Date String (YYYY-MM-DD hh:mm:ss) UTC,Instrument flags,Ambient pressure (hPa),Sample flow (lpm),Bypass flow (lpm),Sample temperature (°C),Ambient temperature (°C),ASC tube jacket temperature (°C),LED temperature (°C),Box temperature (°C),Sample RH (%),Span deviation,Mass concentration (μg/m³),Mass concentration (μg/m³),Mass concentration (μg/m³)
DateTimeUTC,F1_M11,P_M11,Q1_M11,Q2_M11,T1_M11,T2_M11,T3_M11,T4_M11,T5_M11,U1_M11,ZSPAN_M11,X0_M11,X2_M11,X1_M11
2021-12-12 22:00:00,,0819.9,5.01,0.00,26.9,26.1,00.0,35.8,28.6,04.6,0000.0,0001.09,0000.58,0000.37
2021-12-12 22:01:00,,0819.8,4.98,0.00,26.9,26.0,00.0,35.8,28.6,04.6,0000.0,0001.10,0000.58,0000.37
2021-12-12 22:02:00,,0819.8,5.01,0.00,26.9,26.0,00.0,35.8,28.6,04.6,0000.0,0001.07,0000.57,0000.37
2021-12-12 22:03:00,,0819.8,4.99,0.00,26.9,26.0,00.0,35.8,28.6,04.6,0000.0,0001.02,0000.55,0000.37
2021-12-12 22:04:00,,0819.8,4.99,0.00,26.9,26.1,00.0,35.8,28.6,04.7,0000.0,0000.99,0000.56,0000.37
2021-12-12 22:05:00,,0819.8,5.01,0.00,26.9,26.0,00.0,35.8,28.7,04.6,0000.0,0001.08,0000.59,0000.37
2021-12-12 22:06:00,,0819.8,4.99,0.00,26.9,26.0,00.0,35.8,28.6,04.7,0000.0,0001.05,0000.57,0000.37
2021-12-12 22:07:00,,0819.8,5.01,0.00,26.8,26.0,00.0,35.8,28.6,04.7,0000.0,0001.03,0000.56,0000.37
2021-12-12 22:08:00,,0819.9,4.99,0.00,26.8,26.0,00.0,35.8,28.6,04.7,0000.0,0001.34,0000.56,0000.36
2021-12-12 22:09:00,,0819.8,5.01,0.00,26.8,26.0,00.0,35.8,28.5,04.7,0000.0,0001.37,0000.55,0000.36
2021-12-12 22:10:00,,0819.9,5.00,0.00,26.8,26.0,00.0,35.8,28.5,04.7,0000.0,0001.32,0000.54,0000.36
2021-12-12 22:11:00,,0819.9,5.00,0.00,26.8,26.0,00.0,35.8,28.5,04.7,0000.0,0001.26,0000.51,0000.36
2021-12-12 22:12:00,,0819.9,4.99,0.00,26.8,26.0,00.0,35.8,28.5,04.7,0000.0,0001.47,0000.53,0000.36
2021-12-12 22:13:00,,0819.9,5.01,0.00,26.8,26.0,00.0,35.8,28.5,04.7,0000.0,0001.58,0000.55,0000.37
2021-12-12 22:14:00,,0819.8,4.99,0.00,26.8,26.0,00.0,35.8,28.5,04.7,0000.0,0001.72,0000.56,0000.37
2021-12-12 22:15:00,,0819.9,5.01,0.00,26.8,26.0,00.0,35.8,28.5,04.7,0000.0,0001.86,0000.53,0000.37
2021-12-12 22:16:00,,0819.8,4.98,0.00,26.8,26.0,00.0,35.8,28.5,04.8,0000.0,0001.72,0000.50,0000.37
2021-12-12 22:17:00,,0819.9,5.00,0.00,26.8,26.0,00.0,35.8,28.5,04.8,0000.0,0001.64,0000.48,0000.36
2021-12-12 22:18:00,,0819.9,5.00,0.00,26.8,26.0,00.0,35.8,28.6,04.8,0000.0,0001.65,0000.48,0000.36
2021-12-12 22:19:00,,0819.9,5.01,0.00,26.8,26.0,00.0,35.8,28.5,04.8,0000.0,0001.41,0000.51,0000.37
2021-12-12 22:20:00,,0819.9,4.98,0.00,26.8,26.0,00.0,35.8,28.5,04.8,0000.0,0001.36,0000.52,0000.38
2021-12-12 22:21:00,,0819.9,5.00,0.00,26.8,26.0,00.0,35.8,28.5,04.8,0000.0,0001.35,0000.51,0000.37
2021-12-12 22:22:00,,0819.8,5.00,0.00,26.8,26.0,00.0,35.8,28.5,04.8,0000.0,0001.38,0000.53,0000.38
2021-12-12 22:23:00,,0819.9,5.00,0.00,26.8,26.0,00.0,35.8,28.6,04.8,0000.0,0001.13,0000.51,0000.39
2021-12-12 22:24:00,,0819.9,5.00,0.00,26.8,26.0,00.0,35.8,28.6,04.8,0000.0,0001.09,0000.52,0000.39
2021-12-12 22:25:00,,0819.9,5.00,0.00,26.8,26.0,00.0,35.8,28.6,04.8,0000.0,0000.96,0000.52,0000.39
2021-12-12 22:26:00,,0819.9,4.99,0.00,26.8,26.0,00.0,35.8,28.5,04.8,0000.0,0000.81,0000.53,0000.39
2021-12-12 22:27:00,,0819.9,5.01,0.00,26.8,26.1,00.0,35.8,28.5,04.8,0000.0,0000.82,0000.54,0000.39
2021-12-12 22:28:00,,0819.9,5.00,0.00,26.8,26.1,00.0,35.8,28.5,04.8,0000.0,0000.80,0000.53,0000.40
2021-12-12 22:29:00,,0820.0,5.01,0.00,26.8,26.1,00.0,35.8,28.5,04.8,0000.0,0000.80,0000.53,0000.40
2021-12-12 22:30:00,,0820.0,4.99,0.00,26.8,26.1,00.0,35.8,28.6,04.9,0000.0,0000.80,0000.53,0000.40
2021-12-12 22:31:00,,0820.1,5.01,0.00,26.8,26.1,00.0,35.8,28.6,04.8,0000.0,0000.83,0000.54,0000.40
2021-12-12 22:32:00,,0820.1,5.00,0.00,26.9,26.1,00.0,35.8,28.6,04.8,0000.0,0000.84,0000.55,0000.40
2021-12-12 22:33:00,,0820.2,5.01,0.00,26.9,26.1,00.0,35.8,28.6,04.8,0000.0,0000.79,0000.53,0000.40
2021-12-12 22:34:00,,0820.1,5.01,0.00,26.9,26.1,00.0,35.8,28.6,04.8,0000.0,0000.76,0000.52,0000.40
2021-12-12 22:35:00,,0820.2,4.98,0.00,26.9,26.1,00.0,35.8,28.6,04.8,0000.0,0000.70,0000.48,0000.39
2021-12-12 22:36:00,,0820.1,5.01,0.00,26.9,26.1,00.0,35.8,28.6,04.8,0000.0,0000.68,0000.47,0000.38
2021-12-12 22:37:00,,0820.1,4.99,0.00,26.9,26.1,00.0,35.8,28.6,04.8,0000.0,0000.63,0000.45,0000.37
2021-12-12 22:38:00,,0820.2,5.00,0.00,26.9,26.1,00.0,35.8,28.6,04.8,0000.0,0000.69,0000.47,0000.37
2021-12-12 22:39:00,,0820.1,5.01,0.00,26.9,26.1,00.0,35.8,28.7,04.9,0000.0,0000.76,0000.49,0000.37
2021-12-12 22:40:00,,0820.2,4.99,0.00,26.9,26.2,00.0,35.8,28.7,04.8,0000.0,0000.74,0000.48,0000.36
2021-12-12 22:41:00,,0820.2,5.00,0.00,26.9,26.2,00.0,35.9,28.7,04.8,0000.0,0000.65,0000.45,0000.36
2021-12-12 22:42:00,,0820.2,5.00,0.00,26.9,26.2,00.0,35.8,28.7,04.8,0000.0,0000.59,0000.42,0000.35
2021-12-12 22:43:00,,0820.2,5.00,0.00,26.9,26.2,00.0,35.8,28.6,04.8,0000.0,0000.56,0000.40,0000.34
2021-12-12 22:44:00,,0820.2,5.00,0.00,26.9,26.2,00.0,35.9,28.7,04.8,0000.0,0000.57,0000.40,0000.33
2021-12-12 22:45:00,,0820.2,5.00,0.00,26.9,26.2,00.0,35.9,28.7,04.8,0000.0,0000.62,0000.41,0000.33
2021-12-12 22:46:00,,0820.1,5.00,0.00,26.9,26.2,00.0,35.9,28.7,04.8,0000.0,0002.10,0000.42,0000.33
2021-12-12 22:47:00,,0820.2,5.00,0.00,26.9,26.2,00.0,35.9,28.7,04.8,0000.0,0002.24,0000.42,0000.33
2021-12-12 22:48:00,,0820.2,5.00,0.00,26.9,26.1,00.0,35.9,28.7,04.8,0000.0,0002.25,0000.43,0000.33
2021-12-12 22:49:00,,0820.3,4.99,0.00,26.9,26.1,00.0,35.9,28.6,04.9,0000.0,0002.20,0000.41,0000.33
2021-12-12 22:50:00,,0820.2,5.00,0.00,26.9,26.1,00.0,35.9,28.6,04.9,0000.0,0002.12,0000.38,0000.32
2021-12-12 22:51:00,,0820.2,5.00,0.00,26.9,26.1,00.0,35.9,28.7,04.9,0000.0,0002.14,0000.40,0000.33
2021-12-12 22:52:00,,0820.3,5.01,0.00,26.9,26.1,00.0,35.9,28.7,04.9,0000.0,0002.17,0000.40,0000.32
2021-12-12 22:53:00,,0820.2,5.00,0.00,26.9,26.1,00.0,35.9,28.7,04.9,0000.0,0002.22,0000.43,0000.32
2021-12-12 22:54:00,,0820.2,4.99,0.00,26.9,26.1,00.0,35.9,28.7,04.9,0000.0,0002.21,0000.43,0000.32
2021-12-12 22:55:00,,0820.2,4.99,0.00,26.9,26.1,00.0,35.9,28.7,04.9,0000.0,0002.20,0000.43,0000.33
2021-12-12 22:56:00,,0820.3,5.02,0.00,26.9,26.1,00.0,35.9,28.7,04.9,0000.0,0002.24,0000.42,0000.32
2021-12-12 22:57:00,,0820.3,5.00,0.00,26.9,26.1,00.0,35.9,28.7,04.9,0000.0,0000.70,0000.43,0000.33
2021-12-12 22:58:00,,0820.3,5.00,0.00,26.9,26.1,00.0,35.9,28.6,04.9,0000.0,0000.76,0000.46,0000.33
2021-12-12 22:59:00,,0820.4,4.98,0.00,26.9,26.0,00.0,35.8,28.6,04.9,0000.0,0000.78,0000.47,0000.34
